Weather in Krutaya Gorka

Russia / Kurgan Oblast     55°23′53″N   63°15′47″E
temp.,
°C
wind,
m/s
gust,
m/s
humid.,
%
clouds,
%
prec.,
mm/h
press.,
hPa
HPBL,
m
28 september, tue
tue2823:00+3ene81568100 0.0 1021813
02:00+3ene8156473 0.0 1020856
05:00+4ene8146554 0.0 1019863
08:00+4ne9147097 0.0 10191037
11:00+6ene11155695 0.0 10181311
14:00+8ne91348100 0.0 10181626
17:00+8ne91243100 0.0 10181625
20:00+5nne81353100 0.0 1020872
29 september, wed
wed2923:00+4nne7137175 0.0 1020617
02:00+2nne6137954 0.0 1021428
05:00+1nne6138553 0.0 1022352
08:00+1nne5128360 0.0 1023358
11:00+7nne795886 0.0 1023965
14:00+8nne7846100 0.1 10231779
17:00+8nne6844100 0.1 10231627
20:00+6n495596 0.0 1024254
30 september, thu
thu3023:00+5n485999 0.0 1025277
02:00+2n37765 0.0 1026119
05:000nnw378261 0.0 1026115
08:00+1nnw377875 0.0 1027198
11:00+7nnw455225 0.0 1026864
14:00+9nw45385 0.0 10251517
17:00+9nw45345 0.0 10241518
20:00+4w33495 0.0 102527
1 october, fri
fri123:00+2wnw49645 0.0 1025162
02:00+1w3679100 0.0 1024107
05:00+4w4974100 0.0 1024421
08:00+5wnw4991100 0.3 1024488
11:00+5wnw4793100 1.1 1024459
14:00+6n4691100 0.2 1025882
17:00+6nne4787100 0.3 1026508
20:00+5n258555 0.1 1028125
2 october, sat
sat223:00+4nne34775 0.1 102978
02:000nne22865 0.0 103010
05:000nnw11865 0.0 103110
08:00+1wnw11845 0.0 103232
11:00+6w33615 0.0 1032599
14:00+9w44479 0.0 10311265
17:00+9w454558 0.0 1030918
20:00+6wsw3762100 0.0 1030149